Time,TemperatureF,DewpointF,PressureIn,WindDirection,WindDirectionDegrees,WindSpeedMPH,WindSpeedGustMPH,Humidity,HourlyPrecipIn,Conditions,Clouds,dailyrainin,SoftwareType,DateUTC
2013-02-17 00:00:00,33.8,32.0,29.67,NE,51,7.0,15.0,93,0.00,,,0.03,Wunderground v.1.15,2013-02-17 05:00:00,
2013-02-17 00:05:00,33.6,31.8,29.67,ENE,57,9.0,14.0,93,0.00,,,0.00,Wunderground v.1.15,2013-02-17 05:05:00,
2013-02-17 00:10:00,33.6,31.8,29.66,North,360,8.0,8.0,93,0.00,,,0.00,Wunderground v.1.15,2013-02-17 05:10:00,
2013-02-17 00:15:00,33.5,31.7,29.66,NNE,26,9.0,17.0,93,0.00,,,0.00,Wunderground v.1.15,2013-02-17 05:15:00,
2013-02-17 00:21:00,33.5,31.7,29.66,NE,43,9.0,11.0,93,0.00,,,0.00,Wunderground v.1.15,2013-02-17 05:21:00,
2013-02-17 00:26:00,33.4,31.6,29.66,NNE,15,4.0,11.0,93,0.00,,,0.00,Wunderground v.1.15,2013-02-17 05:26:00,
2013-02-17 00:31:00,33.4,31.6,29.66,ENE,65,7.0,10.0,93,0.00,,,0.00,Wunderground v.1.15,2013-02-17 05:31:00,
2013-02-17 00:36:00,33.4,31.6,29.66,NE,35,6.0,15.0,93,0.00,,,0.00,Wunderground v.1.15,2013-02-17 05:36:00,
2013-02-17 00:41:00,33.2,31.4,29.65,ENE,57,8.0,8.0,93,0.00,,,0.00,Wunderground v.1.15,2013-02-17 05:41:00,
2013-02-17 00:46:00,33.1,31.3,29.66,NE,38,7.0,16.0,93,0.00,,,0.00,Wunderground v.1.15,2013-02-17 05:46:00,
2013-02-17 00:51:00,33.0,31.2,29.66,NNE,12,12.0,13.0,93,0.00,,,0.00,Wunderground v.1.15,2013-02-17 05:51:00,
2013-02-17 00:56:00,32.7,30.9,29.65,NE,54,7.0,16.0,93,0.00,,,0.00,Wunderground v.1.15,2013-02-17 05:56:00,
2013-02-17 01:01:00,32.6,30.8,29.64,NE,34,12.0,13.0,93,0.00,,,0.00,Wunderground v.1.15,2013-02-17 06:01:00,
2013-02-17 01:06:00,32.6,30.5,29.63,NNE,17,11.0,19.0,92,0.00,,,0.00,Wunderground v.1.15,2013-02-17 06:06:00,
2013-02-17 01:11:00,32.7,30.4,29.64,NNE,21,7.0,10.0,91,0.00,,,0.00,Wunderground v.1.15,2013-02-17 06:11:00,
2013-02-17 01:16:00,32.7,30.4,29.64,NE,45,8.0,16.0,91,0.00,,,0.00,Wunderground v.1.15,2013-02-17 06:16:00,
2013-02-17 01:21:00,32.7,30.1,29.64,NNE,31,7.0,9.0,90,0.00,,,0.00,Wunderground v.1.15,2013-02-17 06:21:00,
2013-02-17 01:26:00,32.6,29.7,29.63,NE,36,21.0,26.0,89,0.00,,,0.00,Wunderground v.1.15,2013-02-17 06:26:00,
2013-02-17 01:31:00,32.5,29.6,29.62,NNE,29,9.0,14.0,89,0.00,,,0.00,Wunderground v.1.15,2013-02-17 06:31:00,
2013-02-17 01:36:00,32.5,29.3,29.62,NE,34,10.0,20.0,88,0.00,,,0.00,Wunderground v.1.15,2013-02-17 06:36:00,
2013-02-17 01:41:00,32.3,29.1,29.61,NE,42,6.0,16.0,88,0.00,,,0.00,Wunderground v.1.15,2013-02-17 06:41:00,
2013-02-17 01:46:00,32.1,28.7,29.62,NNE,32,8.0,18.0,87,0.00,,,0.00,Wunderground v.1.15,2013-02-17 06:46:00,
2013-02-17 01:51:00,32.0,28.3,29.62,ENE,58,7.0,11.0,86,0.00,,,0.00,Wunderground v.1.15,2013-02-17 06:51:00,
2013-02-17 01:56:00,32.0,28.3,29.62,NE,49,12.0,16.0,86,0.00,,,0.00,Wunderground v.1.15,2013-02-17 06:56:00,
2013-02-17 02:01:00,32.0,28.3,29.62,NNE,30,9.0,14.0,86,0.00,,,0.00,Wunderground v.1.15,2013-02-17 07:01:00,
2013-02-17 02:06:00,31.8,28.1,29.61,NNE,31,9.0,23.0,86,0.00,,,0.00,Wunderground v.1.15,2013-02-17 07:06:00,
2013-02-17 02:11:00,31.8,28.1,29.60,East,80,15.0,15.0,86,0.00,,,0.00,Wunderground v.1.15,2013-02-17 07:11:00,
2013-02-17 02:16:00,31.7,27.7,29.59,NE,53,14.0,15.0,85,0.00,,,0.00,Wunderground v.1.15,2013-02-17 07:16:00,
2013-02-17 02:21:00,31.5,27.5,29.58,NNE,18,7.0,12.0,85,0.00,,,0.00,Wunderground v.1.15,2013-02-17 07:21:00,
2013-02-17 02:26:00,31.5,27.5,29.58,NE,34,8.0,17.0,85,0.00,,,0.00,Wunderground v.1.15,2013-02-17 07:26:00,
2013-02-17 02:31:00,31.4,27.7,29.57,NNE,28,11.0,13.0,86,0.00,,,0.00,Wunderground v.1.15,2013-02-17 07:31:00,
2013-02-17 02:36:00,31.2,27.2,29.57,North,11,9.0,21.0,85,0.00,,,0.00,Wunderground v.1.15,2013-02-17 07:36:00,
2013-02-17 02:41:00,31.2,27.2,29.57,NNE,24,13.0,17.0,85,0.00,,,0.00,Wunderground v.1.15,2013-02-17 07:41:00,
2013-02-17 02:46:00,31.1,27.1,29.57,NNE,30,8.0,21.0,85,0.00,,,0.00,Wunderground v.1.15,2013-02-17 07:46:00,
2013-02-17 02:51:00,30.9,26.9,29.57,NE,45,13.0,15.0,85,0.00,,,0.00,Wunderground v.1.15,2013-02-17 07:51:00,
2013-02-17 02:56:00,30.7,26.7,29.57,NE,53,6.0,19.0,85,0.00,,,0.00,Wunderground v.1.15,2013-02-17 07:56:00,
2013-02-17 03:01:00,30.6,26.6,29.57,NNE,28,9.0,18.0,85,0.00,,,0.00,Wunderground v.1.15,2013-02-17 08:01:00,
2013-02-17 03:06:00,30.5,26.5,29.57,NNE,32,5.0,20.0,85,0.00,,,0.00,Wunderground v.1.15,2013-02-17 08:06:00,
2013-02-17 03:11:00,30.3,26.3,29.56,NE,40,12.0,15.0,85,0.00,,,0.00,Wunderground v.1.15,2013-02-17 08:11:00,
2013-02-17 03:17:00,30.2,26.5,29.57,NNE,22,8.0,15.0,86,0.00,,,0.00,Wunderground v.1.15,2013-02-17 08:17:00,
2013-02-17 03:21:00,30.1,26.4,29.56,NE,41,9.0,15.0,86,0.00,,,0.00,Wunderground v.1.15,2013-02-17 08:21:00,
2013-02-17 03:27:00,29.8,26.4,29.55,North,5,12.0,20.0,87,0.00,,,0.00,Wunderground v.1.15,2013-02-17 08:27:00,
2013-02-17 03:31:00,29.6,26.5,29.54,NNE,33,10.0,11.0,88,0.00,,,0.00,Wunderground v.1.15,2013-02-17 08:31:00,
2013-02-17 03:37:00,29.5,26.4,29.54,North,5,11.0,19.0,88,0.00,,,0.00,Wunderground v.1.15,2013-02-17 08:37:00,
2013-02-17 03:42:00,29.3,26.2,29.53,NNE,28,14.0,21.0,88,0.00,,,0.00,Wunderground v.1.15,2013-02-17 08:42:00,
2013-02-17 03:47:00,29.1,26.3,29.52,NE,40,10.0,21.0,89,0.00,,,0.00,Wunderground v.1.15,2013-02-17 08:47:00,
2013-02-17 03:52:00,28.9,25.8,29.52,North,5,9.0,26.0,88,0.00,,,0.00,Wunderground v.1.15,2013-02-17 08:52:00,
2013-02-17 03:57:00,28.9,26.1,29.52,ENE,58,9.0,26.0,89,0.00,,,0.00,Wunderground v.1.15,2013-02-17 08:57:00,
2013-02-17 04:02:00,28.9,26.1,29.52,NE,35,14.0,19.0,89,0.00,,,0.00,Wunderground v.1.15,2013-02-17 09:02:00,
2013-02-17 04:07:00,28.8,26.0,29.51,NNE,18,14.0,19.0,89,0.00,,,0.00,Wunderground v.1.15,2013-02-17 09:07:00,
2013-02-17 04:12:00,28.8,26.0,29.51,NNE,30,13.0,20.0,89,0.00,,,0.00,Wunderground v.1.15,2013-02-17 09:12:00,
2013-02-17 04:17:00,28.7,25.9,29.51,North,9,13.0,24.0,89,0.00,,,0.00,Wunderground v.1.15,2013-02-17 09:17:00,
2013-02-17 04:22:00,28.7,25.9,29.51,NNE,15,9.0,18.0,89,0.00,,,0.00,Wunderground v.1.15,2013-02-17 09:22:00,
2013-02-17 04:27:00,28.7,25.9,29.52,NNE,24,21.0,21.0,89,0.00,,,0.00,Wunderground v.1.15,2013-02-17 09:27:00,
2013-02-17 04:32:00,28.6,25.8,29.51,NE,36,9.0,24.0,89,0.00,,,0.00,Wunderground v.1.15,2013-02-17 09:32:00,
2013-02-17 04:37:00,28.6,25.8,29.51,North,5,16.0,24.0,89,0.00,,,0.00,Wunderground v.1.15,2013-02-17 09:37:00,
2013-02-17 04:42:00,28.4,25.6,29.51,North,11,12.0,23.0,89,0.00,,,0.00,Wunderground v.1.15,2013-02-17 09:42:00,
2013-02-17 04:47:00,28.3,25.5,29.50,NNE,31,12.0,25.0,89,0.00,,,0.00,Wunderground v.1.15,2013-02-17 09:47:00,
2013-02-17 04:52:00,28.2,25.4,29.50,NE,42,18.0,20.0,89,0.00,,,0.00,Wunderground v.1.15,2013-02-17 09:52:00,
2013-02-17 04:57:00,28.1,25.3,29.50,NNE,15,18.0,25.0,89,0.00,,,0.00,Wunderground v.1.15,2013-02-17 09:57:00,
2013-02-17 05:03:00,28.0,25.2,29.50,NNE,22,13.0,18.0,89,0.00,,,0.00,Wunderground v.1.15,2013-02-17 10:03:00,
2013-02-17 05:08:00,28.0,25.2,29.49,North,5,10.0,20.0,89,0.00,,,0.00,Wunderground v.1.15,2013-02-17 10:08:00,
2013-02-17 05:13:00,27.7,24.6,29.48,NNE,28,17.0,20.0,88,0.00,,,0.00,Wunderground v.1.15,2013-02-17 10:13:00,
2013-02-17 05:18:00,27.6,24.8,29.48,NE,36,13.0,24.0,89,0.00,,,0.00,Wunderground v.1.15,2013-02-17 10:18:00,
2013-02-17 05:23:00,27.4,24.6,29.48,NE,40,14.0,25.0,89,0.00,,,0.00,Wunderground v.1.15,2013-02-17 10:23:00,
2013-02-17 05:28:00,27.3,24.5,29.47,NNE,28,8.0,28.0,89,0.00,,,0.00,Wunderground v.1.15,2013-02-17 10:28:00,
2013-02-17 05:33:00,27.2,24.7,29.47,North,360,11.0,27.0,90,0.00,,,0.00,Wunderground v.1.15,2013-02-17 10:33:00,
2013-02-17 05:38:00,27.0,24.5,29.47,NNE,22,12.0,28.0,90,0.00,,,0.00,Wunderground v.1.15,2013-02-17 10:38:00,
2013-02-17 05:43:00,26.8,24.3,29.47,NNE,15,19.0,27.0,90,0.00,,,0.00,Wunderground v.1.15,2013-02-17 10:43:00,
2013-02-17 05:48:00,26.4,23.9,29.47,NNE,13,10.0,27.0,90,0.00,,,0.00,Wunderground v.1.15,2013-02-17 10:48:00,
2013-02-17 05:53:00,26.4,24.1,29.46,North,5,13.0,21.0,91,0.00,,,0.00,Wunderground v.1.15,2013-02-17 10:53:00,
2013-02-17 05:58:00,26.3,24.0,29.46,NE,40,22.0,27.0,91,0.00,,,0.00,Wunderground v.1.15,2013-02-17 10:58:00,
2013-02-17 06:03:00,25.9,23.4,29.45,NNE,32,16.0,28.0,90,0.00,,,0.00,Wunderground v.1.15,2013-02-17 11:03:00,
2013-02-17 06:08:00,25.7,23.4,29.45,NE,40,15.0,28.0,91,0.00,,,0.00,Wunderground v.1.15,2013-02-17 11:08:00,
2013-02-17 06:13:00,25.6,23.3,29.44,NNE,29,15.0,28.0,91,0.00,,,0.00,Wunderground v.1.15,2013-02-17 11:13:00,
2013-02-17 06:18:00,25.6,23.3,29.45,NNE,15,11.0,28.0,91,0.00,,,0.00,Wunderground v.1.15,2013-02-17 11:18:00,
2013-02-17 06:23:00,25.7,23.4,29.44,NNE,30,14.0,21.0,91,0.00,,,0.00,Wunderground v.1.15,2013-02-17 11:23:00,
2013-02-17 06:28:00,25.4,23.1,29.44,NNE,22,12.0,23.0,91,0.00,,,0.00,Wunderground v.1.15,2013-02-17 11:28:00,
2013-02-17 06:33:00,25.3,23.0,29.43,NE,40,18.0,24.0,91,0.00,,,0.00,Wunderground v.1.15,2013-02-17 11:33:00,
2013-02-17 06:38:00,25.1,22.8,29.43,North,10,13.0,26.0,91,0.00,,,0.00,Wunderground v.1.15,2013-02-17 11:38:00,
2013-02-17 06:43:00,25.0,22.7,29.43,NNE,13,16.0,22.0,91,0.00,,,0.00,Wunderground v.1.15,2013-02-17 11:43:00,
2013-02-17 06:48:00,24.8,22.5,29.42,NNE,30,13.0,23.0,91,0.00,,,0.00,Wunderground v.1.15,2013-02-17 11:48:00,
2013-02-17 06:53:00,24.7,22.4,29.42,NNE,13,15.0,29.0,91,0.00,,,0.00,Wunderground v.1.15,2013-02-17 11:53:00,
2013-02-17 06:58:00,24.6,22.6,29.42,North,9,15.0,29.0,92,0.00,,,0.00,Wunderground v.1.15,2013-02-17 11:58:00,
2013-02-17 07:03:00,24.5,22.5,29.42,NNE,20,10.0,28.0,92,0.00,,,0.00,Wunderground v.1.15,2013-02-17 12:03:00,
2013-02-17 07:08:00,24.4,22.4,29.42,North,11,11.0,28.0,92,0.00,,,0.00,Wunderground v.1.15,2013-02-17 12:08:00,
2013-02-17 07:13:00,24.2,22.2,29.41,NNE,22,19.0,22.0,92,0.00,,,0.00,Wunderground v.1.15,2013-02-17 12:13:00,
2013-02-17 07:18:00,24.1,22.1,29.41,NE,53,23.0,23.0,92,0.00,,,0.00,Wunderground v.1.15,2013-02-17 12:18:00,
2013-02-17 07:23:00,23.9,21.9,29.41,North,11,14.0,30.0,92,0.00,,,0.00,Wunderground v.1.15,2013-02-17 12:23:00,
2013-02-17 07:28:00,23.9,21.9,29.41,NNE,15,14.0,30.0,92,0.00,,,0.00,Wunderground v.1.15,2013-02-17 12:28:00,
2013-02-17 07:33:00,24.0,22.0,29.40,North,5,21.0,25.0,92,0.00,,,0.00,Wunderground v.1.15,2013-02-17 12:33:00,
2013-02-17 07:38:00,24.0,22.3,29.40,NNE,25,11.0,27.0,93,0.00,,,0.00,Wunderground v.1.15,2013-02-17 12:38:00,
2013-02-17 07:43:00,24.1,22.4,29.40,North,360,16.0,23.0,93,0.00,,,0.00,Wunderground v.1.15,2013-02-17 12:43:00,
2013-02-17 07:48:00,24.0,22.3,29.40,NNE,19,17.0,25.0,93,0.00,,,0.00,Wunderground v.1.15,2013-02-17 12:48:00,
2013-02-17 07:53:00,23.9,22.2,29.40,NNE,30,17.0,22.0,93,0.00,,,0.00,Wunderground v.1.15,2013-02-17 12:53:00,
2013-02-17 07:58:00,24.0,22.3,29.40,NE,36,15.0,24.0,93,0.00,,,0.00,Wunderground v.1.15,2013-02-17 12:58:00,
2013-02-17 08:03:00,23.8,22.1,29.40,NE,34,20.0,26.0,93,0.00,,,0.00,Wunderground v.1.15,2013-02-17 13:03:00,
2013-02-17 08:08:00,23.9,22.2,29.40,NNE,22,11.0,29.0,93,0.00,,,0.00,Wunderground v.1.15,2013-02-17 13:08:00,
2013-02-17 08:13:00,23.9,22.2,29.39,NNE,23,12.0,22.0,93,0.00,,,0.00,Wunderground v.1.15,2013-02-17 13:13:00,
2013-02-17 08:18:00,23.9,22.2,29.39,North,10,15.0,22.0,93,0.00,,,0.00,Wunderground v.1.15,2013-02-17 13:18:00,
2013-02-17 08:23:00,23.9,22.2,29.38,North,360,18.0,24.0,93,0.00,,,0.00,Wunderground v.1.15,2013-02-17 13:23:00,
2013-02-17 08:28:00,23.6,21.9,29.38,NNW,344,11.0,27.0,93,0.00,,,0.00,Wunderground v.1.15,2013-02-17 13:28:00,
2013-02-17 08:33:00,23.6,21.9,29.37,North,355,14.0,25.0,93,0.00,,,0.00,Wunderground v.1.15,2013-02-17 13:33:00,
2013-02-17 08:38:00,23.7,22.0,29.37,NNE,30,10.0,25.0,93,0.00,,,0.00,Wunderground v.1.15,2013-02-17 13:38:00,
2013-02-17 08:43:00,23.6,21.9,29.37,NNW,341,10.0,20.0,93,0.00,,,0.00,Wunderground v.1.15,2013-02-17 13:43:00,
2013-02-17 08:48:00,23.4,21.7,29.36,NNE,13,16.0,27.0,93,0.00,,,0.00,Wunderground v.1.15,2013-02-17 13:48:00,
2013-02-17 08:53:00,23.4,21.7,29.37,NNE,12,12.0,21.0,93,0.00,,,0.00,Wunderground v.1.15,2013-02-17 13:53:00,
2013-02-17 08:58:00,23.5,21.8,29.37,North,9,14.0,21.0,93,0.00,,,0.00,Wunderground v.1.15,2013-02-17 13:58:00,
2013-02-17 09:03:00,23.3,21.6,29.37,NNE,27,13.0,22.0,93,0.00,,,0.00,Wunderground v.1.15,2013-02-17 14:03:00,
2013-02-17 09:08:00,23.5,21.8,29.36,NNW,340,11.0,22.0,93,0.00,,,0.00,Wunderground v.1.15,2013-02-17 14:08:00,
2013-02-17 09:13:00,23.5,21.8,29.37,NNE,12,12.0,22.0,93,0.00,,,0.00,Wunderground v.1.15,2013-02-17 14:13:00,
2013-02-17 09:18:00,23.6,21.9,29.37,NNE,29,14.0,22.0,93,0.00,,,0.00,Wunderground v.1.15,2013-02-17 14:18:00,
2013-02-17 09:23:00,23.7,22.0,29.36,NNE,17,12.0,13.0,93,0.00,,,0.00,Wunderground v.1.15,2013-02-17 14:23:00,
2013-02-17 09:29:00,23.5,21.8,29.36,North,355,9.0,26.0,93,0.00,,,0.00,Wunderground v.1.15,2013-02-17 14:29:00,
2013-02-17 09:34:00,23.8,22.1,29.36,North,360,8.0,23.0,93,0.00,,,0.00,Wunderground v.1.15,2013-02-17 14:34:00,
2013-02-17 09:39:00,23.6,21.9,29.37,NNE,23,13.0,26.0,93,0.00,,,0.00,Wunderground v.1.15,2013-02-17 14:39:00,
2013-02-17 09:44:00,23.7,22.0,29.37,NNE,14,11.0,18.0,93,0.00,,,0.00,Wunderground v.1.15,2013-02-17 14:44:00,
2013-02-17 09:49:00,23.9,22.2,29.37,NNE,19,10.0,22.0,93,0.00,,,0.00,Wunderground v.1.15,2013-02-17 14:49:00,
2013-02-17 09:54:00,23.8,22.1,29.37,North,350,7.0,19.0,93,0.00,,,0.00,Wunderground v.1.15,2013-02-17 14:54:00,
2013-02-17 09:59:00,23.9,22.2,29.37,NNE,15,7.0,19.0,93,0.00,,,0.00,Wunderground v.1.15,2013-02-17 14:59:00,
2013-02-17 10:04:00,24.0,22.3,29.37,NNE,16,8.0,20.0,93,0.00,,,0.00,Wunderground v.1.15,2013-02-17 15:04:00,
2013-02-17 10:09:00,23.9,22.2,29.37,North,5,7.0,22.0,93,0.00,,,0.00,Wunderground v.1.15,2013-02-17 15:09:00,
2013-02-17 10:14:00,23.9,22.2,29.38,NNW,327,13.0,21.0,93,0.00,,,0.00,Wunderground v.1.15,2013-02-17 15:14:00,
2013-02-17 10:19:00,23.7,22.0,29.38,NNW,340,12.0,23.0,93,0.00,,,0.00,Wunderground v.1.15,2013-02-17 15:19:00,
2013-02-17 10:24:00,23.8,22.1,29.38,NNW,340,6.0,23.0,93,0.00,,,0.00,Wunderground v.1.15,2013-02-17 15:24:00,
2013-02-17 10:29:00,24.1,22.4,29.38,North,355,9.0,23.0,93,0.00,,,0.00,Wunderground v.1.15,2013-02-17 15:29:00,
2013-02-17 10:34:00,24.2,22.5,29.38,North,11,10.0,16.0,93,0.00,,,0.00,Wunderground v.1.15,2013-02-17 15:34:00,
2013-02-17 10:39:00,23.9,22.2,29.38,North,11,10.0,23.0,93,0.00,,,0.00,Wunderground v.1.15,2013-02-17 15:39:00,
2013-02-17 10:44:00,23.6,21.9,29.39,North,355,12.0,21.0,93,0.00,,,0.00,Wunderground v.1.15,2013-02-17 15:44:00,
2013-02-17 10:49:00,23.3,21.6,29.39,NNW,340,8.0,26.0,93,0.00,,,0.00,Wunderground v.1.15,2013-02-17 15:49:00,
2013-02-17 10:54:00,23.2,21.5,29.39,NNE,28,5.0,23.0,93,0.00,,,0.00,Wunderground v.1.15,2013-02-17 15:54:00,
2013-02-17 10:59:00,23.1,21.4,29.39,North,360,19.0,23.0,93,0.00,,,0.00,Wunderground v.1.15,2013-02-17 15:59:00,
2013-02-17 11:04:00,23.2,21.5,29.39,NNE,27,14.0,20.0,93,0.00,,,0.00,Wunderground v.1.15,2013-02-17 16:04:00,
2013-02-17 11:09:00,22.9,21.2,29.39,North,355,10.0,29.0,93,0.00,,,0.00,Wunderground v.1.15,2013-02-17 16:09:00,
2013-02-17 11:14:00,23.0,21.3,29.39,North,349,10.0,22.0,93,0.00,,,0.00,Wunderground v.1.15,2013-02-17 16:14:00,
2013-02-17 11:19:00,22.9,21.2,29.39,NNW,333,6.0,22.0,93,0.00,,,0.00,Wunderground v.1.15,2013-02-17 16:19:00,
2013-02-17 11:24:00,23.1,21.4,29.39,NNW,344,9.0,18.0,93,0.00,,,0.00,Wunderground v.1.15,2013-02-17 16:24:00,
2013-02-17 11:29:00,23.0,21.3,29.38,NNE,33,13.0,26.0,93,0.00,,,0.00,Wunderground v.1.15,2013-02-17 16:29:00,
2013-02-17 11:34:00,23.0,21.3,29.39,NNE,24,7.0,22.0,93,0.00,,,0.00,Wunderground v.1.15,2013-02-17 16:34:00,
2013-02-17 11:39:00,23.2,21.5,29.39,North,5,14.0,22.0,93,0.00,,,0.00,Wunderground v.1.15,2013-02-17 16:39:00,
2013-02-17 11:44:00,23.1,21.4,29.39,North,5,14.0,21.0,93,0.00,,,0.00,Wunderground v.1.15,2013-02-17 16:44:00,
2013-02-17 11:49:00,23.3,21.6,29.39,NNW,345,14.0,22.0,93,0.00,,,0.00,Wunderground v.1.15,2013-02-17 16:49:00,
2013-02-17 11:54:00,23.3,21.6,29.39,North,349,16.0,21.0,93,0.00,,,0.00,Wunderground v.1.15,2013-02-17 16:54:00,
2013-02-17 11:59:00,23.2,21.5,29.39,North,11,17.0,24.0,93,0.00,,,0.00,Wunderground v.1.15,2013-02-17 16:59:00,
2013-02-17 12:04:00,23.4,21.9,29.39,NNW,347,12.0,24.0,94,0.00,,,0.00,Wunderground v.1.15,2013-02-17 17:04:00,
2013-02-17 12:09:00,23.4,21.7,29.39,North,349,9.0,26.0,93,0.00,,,0.00,Wunderground v.1.15,2013-02-17 17:09:00,
2013-02-17 12:14:00,23.7,22.2,29.39,North,355,7.0,17.0,94,0.00,,,0.00,Wunderground v.1.15,2013-02-17 17:14:00,
2013-02-17 12:20:00,23.7,22.2,29.39,North,350,12.0,21.0,94,0.00,,,0.00,Wunderground v.1.15,2013-02-17 17:20:00,
2013-02-17 12:25:00,23.6,21.9,29.39,North,355,12.0,25.0,93,0.00,,,0.00,Wunderground v.1.15,2013-02-17 17:25:00,
2013-02-17 12:30:00,23.6,21.9,29.39,North,355,8.0,25.0,93,0.00,,,0.00,Wunderground v.1.15,2013-02-17 17:30:00,
2013-02-17 12:35:00,24.0,22.3,29.39,North,349,9.0,21.0,93,0.00,,,0.00,Wunderground v.1.15,2013-02-17 17:35:00,
2013-02-17 12:40:00,24.0,22.3,29.39,NNE,14,9.0,23.0,93,0.00,,,0.00,Wunderground v.1.15,2013-02-17 17:40:00,
2013-02-17 12:45:00,24.2,22.5,29.40,North,360,21.0,21.0,93,0.00,,,0.00,Wunderground v.1.15,2013-02-17 17:45:00,
2013-02-17 12:50:00,24.0,22.3,29.40,NNW,333,6.0,21.0,93,0.00,,,0.00,Wunderground v.1.15,2013-02-17 17:50:00,
2013-02-17 12:55:00,24.1,22.4,29.40,North,5,9.0,22.0,93,0.00,,,0.00,Wunderground v.1.15,2013-02-17 17:55:00,
2013-02-17 13:00:00,24.2,22.5,29.40,North,355,10.0,24.0,93,0.00,,,0.00,Wunderground v.1.15,2013-02-17 18:00:00,
2013-02-17 13:05:00,24.2,22.5,29.40,NNW,335,11.0,21.0,93,0.00,,,0.00,Wunderground v.1.15,2013-02-17 18:05:00,
2013-02-17 13:10:00,24.2,22.5,29.41,NNW,344,13.0,21.0,93,0.00,,,0.00,Wunderground v.1.15,2013-02-17 18:10:00,
2013-02-17 13:15:00,24.2,22.5,29.40,NNW,337,14.0,26.0,93,0.00,,,0.00,Wunderground v.1.15,2013-02-17 18:15:00,
2013-02-17 13:20:00,24.3,22.6,29.41,NNW,333,15.0,26.0,93,0.00,,,0.00,Wunderground v.1.15,2013-02-17 18:20:00,
2013-02-17 13:25:00,24.4,22.7,29.41,NNW,348,18.0,20.0,93,0.00,,,0.00,Wunderground v.1.15,2013-02-17 18:25:00,
2013-02-17 13:30:00,24.6,22.9,29.40,North,360,23.0,23.0,93,0.00,,,0.00,Wunderground v.1.15,2013-02-17 18:30:00,
2013-02-17 13:35:00,24.7,22.7,29.41,NNW,344,17.0,25.0,92,0.00,,,0.00,Wunderground v.1.15,2013-02-17 18:35:00,
2013-02-17 13:40:00,24.6,22.6,29.41,NNW,341,12.0,28.0,92,0.00,,,0.00,Wunderground v.1.15,2013-02-17 18:40:00,
2013-02-17 13:45:00,24.8,22.5,29.41,North,355,11.0,26.0,91,0.00,,,0.00,Wunderground v.1.15,2013-02-17 18:45:00,
2013-02-17 13:50:00,24.8,22.5,29.41,NNE,17,10.0,26.0,91,0.00,,,0.00,Wunderground v.1.15,2013-02-17 18:50:00,
2013-02-17 13:55:00,25.0,22.7,29.41,NNW,344,17.0,29.0,91,0.00,,,0.00,Wunderground v.1.15,2013-02-17 18:55:00,
2013-02-17 14:00:00,24.8,22.3,29.42,North,355,24.0,29.0,90,0.00,,,0.00,Wunderground v.1.15,2013-02-17 19:00:00,
2013-02-17 14:05:00,24.6,22.1,29.42,NNW,340,17.0,30.0,90,0.00,,,0.00,Wunderground v.1.15,2013-02-17 19:05:00,
2013-02-17 14:10:00,24.7,22.2,29.42,NNW,344,17.0,31.0,90,0.00,,,0.00,Wunderground v.1.15,2013-02-17 19:10:00,
2013-02-17 14:15:00,24.6,22.1,29.42,NW,322,20.0,33.0,90,0.00,,,0.00,Wunderground v.1.15,2013-02-17 19:15:00,
2013-02-17 14:20:00,24.7,22.2,29.43,NNW,344,17.0,33.0,90,0.00,,,0.00,Wunderground v.1.15,2013-02-17 19:20:00,
2013-02-17 14:25:00,24.6,21.8,29.43,North,5,14.0,24.0,89,0.00,,,0.00,Wunderground v.1.15,2013-02-17 19:25:00,
2013-02-17 14:30:00,24.6,21.8,29.43,NNW,339,19.0,26.0,89,0.00,,,0.00,Wunderground v.1.15,2013-02-17 19:30:00,
2013-02-17 14:35:00,24.6,21.8,29.43,North,350,23.0,29.0,89,0.00,,,0.00,Wunderground v.1.15,2013-02-17 19:35:00,
2013-02-17 14:40:00,24.0,21.2,29.44,NNW,342,12.0,38.0,89,0.00,,,0.00,Wunderground v.1.15,2013-02-17 19:40:00,
2013-02-17 14:45:00,24.2,21.4,29.44,NNW,342,20.0,37.0,89,0.00,,,0.00,Wunderground v.1.15,2013-02-17 19:45:00,
2013-02-17 14:50:00,24.1,21.3,29.44,North,355,13.0,37.0,89,0.00,,,0.00,Wunderground v.1.15,2013-02-17 19:50:00,
2013-02-17 14:55:00,24.4,21.6,29.45,NNW,348,16.0,28.0,89,0.00,,,0.00,Wunderground v.1.15,2013-02-17 19:55:00,
2013-02-17 15:00:00,24.4,21.6,29.44,NNW,348,23.0,23.0,89,0.00,,,0.00,Wunderground v.1.15,2013-02-17 20:00:00,
2013-02-17 15:05:00,24.2,21.2,29.44,NNE,16,16.0,30.0,88,0.00,,,0.00,Wunderground v.1.15,2013-02-17 20:05:00,
2013-02-17 15:10:00,24.3,21.3,29.45,NNW,340,14.0,18.0,88,0.00,,,0.00,Wunderground v.1.15,2013-02-17 20:10:00,
2013-02-17 15:15:00,24.3,21.3,29.45,NNW,334,20.0,28.0,88,0.00,,,0.00,Wunderground v.1.15,2013-02-17 20:15:00,
2013-02-17 15:20:00,24.4,21.6,29.45,NNW,345,31.0,31.0,89,0.00,,,0.00,Wunderground v.1.15,2013-02-17 20:20:00,
2013-02-17 15:25:00,24.4,21.4,29.45,NNW,338,13.0,33.0,88,0.00,,,0.00,Wunderground v.1.15,2013-02-17 20:25:00,
2013-02-17 15:30:00,24.2,21.2,29.45,North,355,9.0,19.0,88,0.00,,,0.00,Wunderground v.1.15,2013-02-17 20:30:00,
2013-02-17 15:35:00,24.5,21.5,29.46,NNW,332,15.0,24.0,88,0.00,,,0.00,Wunderground v.1.15,2013-02-17 20:35:00,
2013-02-17 15:40:00,24.3,21.3,29.46,North,360,11.0,16.0,88,0.00,,,0.00,Wunderground v.1.15,2013-02-17 20:40:00,
2013-02-17 15:45:00,24.2,21.2,29.47,NNW,343,27.0,36.0,88,0.00,,,0.00,Wunderground v.1.15,2013-02-17 20:45:00,
2013-02-17 15:50:00,24.4,21.4,29.47,North,5,13.0,19.0,88,0.00,,,0.00,Wunderground v.1.15,2013-02-17 20:50:00,
2013-02-17 15:55:00,24.6,21.6,29.47,NNW,344,15.0,25.0,88,0.00,,,0.00,Wunderground v.1.15,2013-02-17 20:55:00,
2013-02-17 16:00:00,24.8,21.8,29.48,North,11,17.0,17.0,88,0.00,,,0.00,Wunderground v.1.15,2013-02-17 21:00:00,
2013-02-17 16:06:00,24.7,21.4,29.48,NNW,333,26.0,32.0,87,0.00,,,0.00,Wunderground v.1.15,2013-02-17 21:06:00,
2013-02-17 16:11:00,24.7,21.4,29.48,NNW,329,19.0,26.0,87,0.00,,,0.00,Wunderground v.1.15,2013-02-17 21:11:00,
2013-02-17 16:16:00,24.7,21.4,29.48,NNW,348,17.0,31.0,87,0.00,,,0.00,Wunderground v.1.15,2013-02-17 21:16:00,
2013-02-17 16:21:00,24.6,21.3,29.48,NNW,348,18.0,25.0,87,0.00,,,0.00,Wunderground v.1.15,2013-02-17 21:21:00,
2013-02-17 16:26:00,24.8,21.5,29.48,NNW,342,14.0,32.0,87,0.00,,,0.00,Wunderground v.1.15,2013-02-17 21:26:00,
2013-02-17 16:31:00,24.8,21.5,29.49,North,5,23.0,25.0,87,0.00,,,0.00,Wunderground v.1.15,2013-02-17 21:31:00,
2013-02-17 16:36:00,24.9,21.6,29.49,NNW,339,13.0,30.0,87,0.00,,,0.00,Wunderground v.1.15,2013-02-17 21:36:00,
2013-02-17 16:41:00,25.0,21.7,29.49,NNW,328,19.0,19.0,87,0.00,,,0.00,Wunderground v.1.15,2013-02-17 21:41:00,
2013-02-17 16:46:00,25.1,21.5,29.50,North,5,15.0,25.0,86,0.00,,,0.00,Wunderground v.1.15,2013-02-17 21:46:00,
2013-02-17 16:51:00,25.2,21.6,29.50,North,10,11.0,19.0,86,0.00,,,0.00,Wunderground v.1.15,2013-02-17 21:51:00,
2013-02-17 16:56:00,25.2,21.6,29.50,NNW,327,11.0,24.0,86,0.00,,,0.00,Wunderground v.1.15,2013-02-17 21:56:00,
2013-02-17 17:01:00,25.3,21.7,29.50,North,355,21.0,33.0,86,0.00,,,0.00,Wunderground v.1.15,2013-02-17 22:01:00,
2013-02-17 17:06:00,25.3,21.4,29.50,NW,313,13.0,33.0,85,0.00,,,0.00,Wunderground v.1.15,2013-02-17 22:06:00,
2013-02-17 17:11:00,25.3,21.4,29.51,North,355,8.0,15.0,85,0.00,,,0.00,Wunderground v.1.15,2013-02-17 22:11:00,
2013-02-17 17:16:00,25.1,21.2,29.51,NNW,348,16.0,33.0,85,0.00,,,0.00,Wunderground v.1.15,2013-02-17 22:16:00,
2013-02-17 17:21:00,25.3,21.4,29.52,North,355,21.0,28.0,85,0.00,,,0.00,Wunderground v.1.15,2013-02-17 22:21:00,
2013-02-17 17:26:00,25.4,21.2,29.52,North,5,10.0,31.0,84,0.00,,,0.00,Wunderground v.1.15,2013-02-17 22:26:00,
2013-02-17 17:31:00,25.5,21.3,29.53,NNW,343,6.0,17.0,84,0.00,,,0.00,Wunderground v.1.15,2013-02-17 22:31:00,
2013-02-17 17:36:00,25.4,21.2,29.53,NW,325,20.0,28.0,84,0.00,,,0.00,Wunderground v.1.15,2013-02-17 22:36:00,
2013-02-17 17:41:00,25.4,21.2,29.53,NNW,331,15.0,18.0,84,0.00,,,0.00,Wunderground v.1.15,2013-02-17 22:41:00,
2013-02-17 17:46:00,25.5,21.1,29.53,North,355,16.0,25.0,83,0.00,,,0.00,Wunderground v.1.15,2013-02-17 22:46:00,
2013-02-17 17:51:00,25.6,20.9,29.54,NNW,336,22.0,22.0,82,0.00,,,0.00,Wunderground v.1.15,2013-02-17 22:51:00,
2013-02-17 17:56:00,25.7,21.0,29.54,NNW,344,18.0,23.0,82,0.00,,,0.00,Wunderground v.1.15,2013-02-17 22:56:00,
2013-02-17 18:01:00,25.7,21.0,29.54,NNW,342,11.0,17.0,82,0.00,,,0.00,Wunderground v.1.15,2013-02-17 23:01:00,
2013-02-17 18:07:00,25.8,20.8,29.55,North,355,12.0,25.0,81,0.00,,,0.00,Wunderground v.1.15,2013-02-17 23:07:00,
2013-02-17 18:12:00,25.8,20.5,29.55,NNW,341,17.0,23.0,80,0.00,,,0.00,Wunderground v.1.15,2013-02-17 23:12:00,
2013-02-17 18:17:00,25.9,20.3,29.55,NW,317,13.0,30.0,79,0.00,,,0.00,Wunderground v.1.15,2013-02-17 23:17:00,
2013-02-17 18:22:00,25.9,20.3,29.55,NW,324,18.0,23.0,79,0.00,,,0.00,Wunderground v.1.15,2013-02-17 23:22:00,
2013-02-17 18:27:00,25.8,20.2,29.56,NNW,346,15.0,23.0,79,0.00,,,0.00,Wunderground v.1.15,2013-02-17 23:27:00,
2013-02-17 18:32:00,25.8,19.9,29.56,NNW,334,10.0,17.0,78,0.00,,,0.00,Wunderground v.1.15,2013-02-17 23:32:00,
2013-02-17 18:37:00,25.8,19.9,29.56,NNW,337,23.0,27.0,78,0.00,,,0.00,Wunderground v.1.15,2013-02-17 23:37:00,
2013-02-17 18:42:00,25.9,19.7,29.56,NNW,346,12.0,23.0,77,0.00,,,0.00,Wunderground v.1.15,2013-02-17 23:42:00,
2013-02-17 18:47:00,25.9,19.7,29.56,North,355,11.0,23.0,77,0.00,,,0.00,Wunderground v.1.15,2013-02-17 23:47:00,
2013-02-17 18:52:00,26.0,19.8,29.57,North,355,12.0,20.0,77,0.00,,,0.00,Wunderground v.1.15,2013-02-17 23:52:00,
2013-02-17 18:57:00,26.0,19.5,29.57,North,360,21.0,26.0,76,0.00,,,0.00,Wunderground v.1.15,2013-02-17 23:57:00,
2013-02-17 19:02:00,26.0,19.2,29.57,North,355,18.0,28.0,75,0.00,,,0.00,Wunderground v.1.15,2013-02-18 00:02:00,
2013-02-17 19:07:00,25.9,18.4,29.57,North,5,10.0,32.0,73,0.00,,,0.00,Wunderground v.1.15,2013-02-18 00:07:00,
2013-02-17 19:12:00,25.9,18.7,29.57,NNW,340,21.0,32.0,74,0.00,,,0.00,Wunderground v.1.15,2013-02-18 00:12:00,
2013-02-17 19:17:00,25.8,18.3,29.57,NNW,346,17.0,32.0,73,0.00,,,0.00,Wunderground v.1.15,2013-02-18 00:17:00,
2013-02-17 19:22:00,25.7,19.2,29.57,NNW,336,18.0,23.0,76,0.00,,,0.00,Wunderground v.1.15,2013-02-18 00:22:00,
2013-02-17 19:27:00,25.6,18.8,29.57,NNW,347,17.0,30.0,75,0.00,,,0.00,Wunderground v.1.15,2013-02-18 00:27:00,
2013-02-17 19:32:00,25.6,18.5,29.57,North,355,18.0,23.0,74,0.00,,,0.00,Wunderground v.1.15,2013-02-18 00:32:00,
2013-02-17 19:37:00,25.7,18.9,29.58,NW,324,19.0,24.0,75,0.00,,,0.00,Wunderground v.1.15,2013-02-18 00:37:00,
2013-02-17 19:42:00,25.4,18.3,29.58,NW,319,22.0,23.0,74,0.00,,,0.00,Wunderground v.1.15,2013-02-18 00:42:00,
2013-02-17 19:47:00,25.0,17.9,29.58,North,355,16.0,25.0,74,0.00,,,0.00,Wunderground v.1.15,2013-02-18 00:47:00,
2013-02-17 19:52:00,24.7,17.6,29.58,NW,326,21.0,25.0,74,0.00,,,0.00,Wunderground v.1.15,2013-02-18 00:52:00,
2013-02-17 19:57:00,24.6,17.8,29.58,NW,322,23.0,26.0,75,0.00,,,0.00,Wunderground v.1.15,2013-02-18 00:57:00,
2013-02-17 20:02:00,24.4,17.3,29.59,NNW,333,21.0,27.0,74,0.00,,,0.00,Wunderground v.1.15,2013-02-18 01:02:00,
2013-02-17 20:07:00,24.4,17.0,29.60,NNW,329,18.0,27.0,73,0.00,,,0.00,Wunderground v.1.15,2013-02-18 01:07:00,
2013-02-17 20:12:00,24.3,16.9,29.60,North,351,11.0,27.0,73,0.00,,,0.00,Wunderground v.1.15,2013-02-18 01:12:00,
2013-02-17 20:17:00,24.3,16.9,29.60,NW,319,14.0,27.0,73,0.00,,,0.00,Wunderground v.1.15,2013-02-18 01:17:00,
2013-02-17 20:23:00,24.3,16.9,29.60,NNW,333,15.0,21.0,73,0.00,,,0.00,Wunderground v.1.15,2013-02-18 01:23:00,
2013-02-17 20:28:00,24.1,16.4,29.61,NNE,14,15.0,22.0,72,0.00,,,0.00,Wunderground v.1.15,2013-02-18 01:28:00,
2013-02-17 20:33:00,24.0,16.3,29.61,North,355,13.0,21.0,72,0.00,,,0.00,Wunderground v.1.15,2013-02-18 01:33:00,
2013-02-17 20:38:00,23.8,15.8,29.61,North,351,10.0,23.0,71,0.00,,,0.00,Wunderground v.1.15,2013-02-18 01:38:00,
2013-02-17 20:43:00,23.5,15.5,29.61,North,9,15.0,25.0,71,0.00,,,0.00,Wunderground v.1.15,2013-02-18 01:43:00,
2013-02-17 20:48:00,23.3,15.3,29.62,North,355,16.0,27.0,71,0.00,,,0.00,Wunderground v.1.15,2013-02-18 01:48:00,
2013-02-17 20:53:00,23.1,15.4,29.62,NNW,338,16.0,28.0,72,0.00,,,0.00,Wunderground v.1.15,2013-02-18 01:53:00,
2013-02-17 20:58:00,23.0,15.6,29.62,North,355,12.0,28.0,73,0.00,,,0.00,Wunderground v.1.15,2013-02-18 01:58:00,
2013-02-17 21:03:00,22.9,15.5,29.63,NNW,329,13.0,16.0,73,0.00,,,0.00,Wunderground v.1.15,2013-02-18 02:03:00,
2013-02-17 21:08:00,22.7,15.3,29.63,North,351,15.0,27.0,73,0.00,,,0.00,Wunderground v.1.15,2013-02-18 02:08:00,
2013-02-17 21:13:00,22.7,15.3,29.63,NW,323,18.0,22.0,73,0.00,,,0.00,Wunderground v.1.15,2013-02-18 02:13:00,
2013-02-17 21:18:00,22.6,14.9,29.63,NW,321,20.0,23.0,72,0.00,,,0.00,Wunderground v.1.15,2013-02-18 02:18:00,
2013-02-17 21:23:00,22.4,14.7,29.64,NNW,340,18.0,27.0,72,0.00,,,0.00,Wunderground v.1.15,2013-02-18 02:23:00,
2013-02-17 21:28:00,22.4,15.1,29.64,North,355,7.0,27.0,73,0.00,,,0.00,Wunderground v.1.15,2013-02-18 02:28:00,
2013-02-17 21:33:00,22.3,14.3,29.64,NNW,328,10.0,31.0,71,0.00,,,0.00,Wunderground v.1.15,2013-02-18 02:33:00,
2013-02-17 21:38:00,22.3,14.6,29.64,North,360,12.0,31.0,72,0.00,,,0.00,Wunderground v.1.15,2013-02-18 02:38:00,
2013-02-17 21:43:00,22.1,14.4,29.65,NNW,346,12.0,21.0,72,0.00,,,0.00,Wunderground v.1.15,2013-02-18 02:43:00,
2013-02-17 21:48:00,22.1,14.4,29.65,North,349,13.0,21.0,72,0.00,,,0.00,Wunderground v.1.15,2013-02-18 02:48:00,
2013-02-17 21:53:00,22.0,14.3,29.65,NNW,340,17.0,24.0,72,0.00,,,0.00,Wunderground v.1.15,2013-02-18 02:53:00,
2013-02-17 21:58:00,21.9,14.3,29.66,NNW,340,10.0,24.0,72,0.00,,,0.00,Wunderground v.1.15,2013-02-18 02:58:00,
2013-02-17 22:03:00,21.9,13.9,29.66,North,351,18.0,21.0,71,0.00,,,0.00,Wunderground v.1.15,2013-02-18 03:03:00,
2013-02-17 22:08:00,21.7,13.7,29.66,NNW,343,8.0,22.0,71,0.00,,,0.00,Wunderground v.1.15,2013-02-18 03:08:00,
2013-02-17 22:13:00,21.7,13.7,29.66,NW,321,17.0,25.0,71,0.00,,,0.00,Wunderground v.1.15,2013-02-18 03:13:00,
2013-02-17 22:18:00,21.5,13.5,29.67,North,355,19.0,25.0,71,0.00,,,0.00,Wunderground v.1.15,2013-02-18 03:18:00,
2013-02-17 22:23:00,21.5,13.5,29.67,NNW,339,8.0,19.0,71,0.00,,,0.00,Wunderground v.1.15,2013-02-18 03:23:00,
2013-02-17 22:28:00,21.3,13.4,29.67,WNW,302,10.0,26.0,71,0.00,,,0.00,Wunderground v.1.15,2013-02-18 03:28:00,
2013-02-17 22:33:00,21.2,13.3,29.67,NW,305,21.0,25.0,71,0.00,,,0.00,Wunderground v.1.15,2013-02-18 03:33:00,
2013-02-17 22:38:00,21.2,13.3,29.68,WNW,296,11.0,25.0,71,0.00,,,0.00,Wunderground v.1.15,2013-02-18 03:38:00,
2013-02-17 22:43:00,21.0,13.1,29.68,North,9,14.0,21.0,71,0.00,,,0.00,Wunderground v.1.15,2013-02-18 03:43:00,
2013-02-17 22:48:00,20.9,13.0,29.68,NW,308,19.0,24.0,71,0.00,,,0.00,Wunderground v.1.15,2013-02-18 03:48:00,
2013-02-17 22:53:00,20.9,13.0,29.68,NNW,347,6.0,24.0,71,0.00,,,0.00,Wunderground v.1.15,2013-02-18 03:53:00,
2013-02-17 22:58:00,20.8,12.9,29.68,NNW,341,7.0,24.0,71,0.00,,,0.00,Wunderground v.1.15,2013-02-18 03:58:00,
2013-02-17 23:03:00,20.8,12.9,29.68,North,350,12.0,17.0,71,0.00,,,0.00,Wunderground v.1.15,2013-02-18 04:03:00,
2013-02-17 23:08:00,20.7,12.8,29.69,NNW,344,14.0,22.0,71,0.00,,,0.00,Wunderground v.1.15,2013-02-18 04:08:00,
2013-02-17 23:13:00,20.8,12.9,29.69,NNW,336,12.0,16.0,71,0.00,,,0.00,Wunderground v.1.15,2013-02-18 04:13:00,
2013-02-17 23:18:00,20.6,12.4,29.69,NNW,331,8.0,26.0,70,0.00,,,0.00,Wunderground v.1.15,2013-02-18 04:18:00,
2013-02-17 23:23:00,20.6,12.7,29.69,NNW,346,14.0,23.0,71,0.00,,,0.00,Wunderground v.1.15,2013-02-18 04:23:00,
2013-02-17 23:28:00,20.6,12.7,29.69,North,360,13.0,23.0,71,0.00,,,0.00,Wunderground v.1.15,2013-02-18 04:28:00,
2013-02-17 23:34:00,20.4,12.2,29.70,NNW,343,11.0,18.0,70,0.00,,,0.00,Wunderground v.1.15,2013-02-18 04:34:00,
2013-02-17 23:39:00,20.2,11.7,29.70,NNW,344,14.0,25.0,69,0.00,,,0.00,Wunderground v.1.15,2013-02-18 04:39:00,
2013-02-17 23:44:00,20.2,12.0,29.70,North,355,11.0,18.0,70,0.00,,,0.00,Wunderground v.1.15,2013-02-18 04:44:00,
2013-02-17 23:49:00,20.1,11.9,29.70,NNW,348,20.0,27.0,70,0.00,,,0.00,Wunderground v.1.15,2013-02-18 04:49:00,
2013-02-17 23:54:00,20.1,11.9,29.71,NW,325,12.0,17.0,70,0.00,,,0.00,Wunderground v.1.15,2013-02-18 04:54:00,
2013-02-17 23:59:00,20.1,11.9,29.71,NNW,342,7.0,21.0,70,0.00,,,0.00,Wunderground v.1.15,2013-02-18 04:59:00,